Weather History for KCRP - August, 2011

Change the Weather History Date:

Monday, August 15, 2011

  Actual Average Record
Temperature  
Mean Temperature 87 °F 85 °F  
Max Temperature 98 °F 95 °F 100 °F (2012)
Min Temperature 75 °F 75 °F 67 °F (2004)
Degree Days  
Heating Degree Days 0 0  
Month to date heating degree days 0 0  
Since 1 June heating degree days 0 0  
Since 1 July heating degree days 0 0  
Cooling Degree Days 22 20  
Month to date cooling degree days 348 300  
Year to date cooling degree days 2647 2250  
Since 1 June cooling degree days 1570 1409  
Growing Degree Days 36 (Base 50)    
Moisture  
Dew Point 73 °F    
Average Humidity 67    
Maximum Humidity 94    
Minimum Humidity 39    
Precipitation  
Precipitation 0.00 in 0.08 in 0.79 in (2000)
Month to date precipitation 0.00 0.99  
Year to date precipitation 7.52 17.41  
Snow  
Snow 0.00 in - - ()
Month to date snowfall 0.0  
Since 1 June snowfall 0.0  
Since 1 July snowfall 0.0  
Snow Depth 0.00 in    
Sea Level Pressure  
Sea Level Pressure 29.90 in    
Wind  
Wind Speed 12 mph (SSE)    
Max Wind Speed 24 mph    
Max Gust Speed 31 mph    
Visibility 10 miles    
Events      
T = Trace of Precipitation, MM = Missing Value Source: NWS Daily Summary

Daily Weather History Graph

Daily Weather History Graph

Search for Another Location

Airport or City:

Trip Planner

Search our weather history database for the weather conditions in past years. The results will help you decide how hot, cold, wet, or windy it might be!

Date:

Astronomy

Aug. 15, 2011 Rise Set
Actual Time 7:00 AM CDT 8:08 PM CDT
Civil Twilight 6:35 AM CDT 8:32 PM CDT
Nautical Twilight 6:06 AM CDT 9:01 PM CDT
Astronomical Twilight 5:36 AM CDT 9:31 PM CDT
Moon 9:04 PM CDT (8/15) 8:38 AM CDT (8/15)
Length of Visible Light 13h 57m
Length of Day
13h 08m
Waning Gibbous, 96% of the Moon is Illuminated
Aug 15
Waning Gibbous
Aug 21
Last Quarter
Aug 28
New
Sep 4
First Quarter
Sep 12
Full

Hourly Weather History & Observations

Time (CDT) Temp. Heat Index Dew Point Humidity Pressure Visibility Wind Dir Wind Speed Gust Speed Precip Events Conditions
12:51 AM 82.0 °F 89.4 °F 75.9 °F 82% 29.91 in 10.0 mi South 9.2 mph - N/A   Partly Cloudy
1:51 AM 81.0 °F 87.3 °F 75.9 °F 85% 29.90 in 10.0 mi South 5.8 mph - N/A   Partly Cloudy
2:51 AM 79.0 °F - 75.0 °F 88% 29.90 in 10.0 mi SE 4.6 mph - N/A   Partly Cloudy
3:51 AM 77.0 °F - 73.9 °F 90% 29.90 in 10.0 mi Calm Calm - N/A   Partly Cloudy
4:51 AM 77.0 °F - 73.9 °F 90% 29.89 in 10.0 mi SE 3.5 mph - N/A   Partly Cloudy
5:51 AM 77.0 °F - 73.9 °F 90% 29.89 in 10.0 mi ESE 3.5 mph - N/A   Partly Cloudy
6:51 AM 75.0 °F - 73.0 °F 94% 29.90 in 10.0 mi SSE 4.6 mph - N/A   Partly Cloudy
7:51 AM 79.0 °F - 73.9 °F 84% 29.91 in 10.0 mi SSE 3.5 mph - N/A   Partly Cloudy
8:51 AM 84.2 °F 92.3 °F 75.2 °F 74% 29.92 in 10.0 mi South 8.1 mph - N/A   Partly Cloudy
9:51 AM 87.1 °F 96.3 °F 75.0 °F 67% 29.93 in 10.0 mi South 9.2 mph - N/A   Partly Cloudy
10:51 AM 91.0 °F 98.2 °F 72.0 °F 53% 29.94 in 10.0 mi SSE 11.5 mph - N/A   Partly Cloudy
11:51 AM 93.9 °F 100.8 °F 71.1 °F 47% 29.93 in 10.0 mi South 9.2 mph 18.4 mph N/A   Scattered Clouds
12:51 PM 96.1 °F 103.5 °F 71.1 °F 44% 29.92 in 10.0 mi SSE 13.8 mph 21.9 mph N/A   Scattered Clouds
1:51 PM 98.1 °F 105.0 °F 70.0 °F 40% 29.90 in 10.0 mi SE 17.3 mph 24.2 mph 0.01 in   Scattered Clouds
2:51 PM 97.0 °F 104.8 °F 71.1 °F 43% 29.89 in 10.0 mi SE 18.4 mph 26.5 mph N/A   Scattered Clouds
3:51 PM 97.0 °F 102.8 °F 69.1 °F 40% 29.88 in 10.0 mi ESE 18.4 mph 26.5 mph N/A   Scattered Clouds
4:51 PM 96.1 °F 101.6 °F 69.1 °F 41% 29.86 in 10.0 mi ESE 17.3 mph 27.6 mph N/A   Partly Cloudy
5:51 PM 93.0 °F 99.0 °F 70.0 °F 47% 29.86 in 10.0 mi SE 20.7 mph 27.6 mph N/A   Partly Cloudy
6:51 PM 90.0 °F 96.9 °F 72.0 °F 55% 29.86 in 10.0 mi SE 23.0 mph - N/A   Partly Cloudy
7:51 PM 87.1 °F 95.4 °F 73.9 °F 65% 29.86 in 10.0 mi SE 18.4 mph - N/A   Partly Cloudy
8:51 PM 84.9 °F 94.1 °F 75.9 °F 74% 29.87 in 10.0 mi SE 18.4 mph - N/A   Partly Cloudy
9:51 PM 84.0 °F 93.7 °F 77.0 °F 79% 29.89 in 10.0 mi SE 15.0 mph - N/A   Scattered Clouds
10:51 PM 82.9 °F 90.8 °F 75.9 °F 79% 29.90 in 10.0 mi SSE 12.7 mph - N/A   Partly Cloudy
11:51 PM 82.9 °F 90.8 °F 75.9 °F 79% 29.91 in 10.0 mi SSE 10.4 mph - N/A   Partly Cloudy